SL-8 R/B

Satellite information

Favourite Embed

Satellite Type and Status

ROCKET BODYIN ORBIT

Key statistics

Satellite SL-8 R/B at a glance.

Uptime

15112

Days in orbit

Revolutions

≈ 14.4

Per day

Orbit

LEO

Low Earth Orbit

Inclination

74.0

Latest

Satellite identification and parameters

Extended collection of information and parameters for SL-8 R/B.

Object identification

Identified? True

Debris? False

Object name: SL-8 R/B

International designator: 1984-019B

Object number (NORAD): 14760

Object ID (CCSDS): 14760

Country: COMMONWEALTH OF INDEPENDENT STATES (CIS)

Current information (Y/N): Y

RCS size: LARGE

Orbital parameters

Period: 100.207 minutes

Inclination: 74.0428 deg

SMA: 7146.502 km

Apoapsis: 788.293 km

Periapsis: 748.441 km

RAAN: 123.262 deg

Eccentricy: 0.0027882

Argument of periapsis: 337.9674 deg

Mean anomaly: 22.0278 deg

Mean motion: 14.37018926 rev/day

Mean motion (dot): 0.00000186 rev/day2

B* drag term: 0.000071453 1/REarth

Two-line elements (TLE)

Creation date: July 6, 2025, 10:26 p.m.

Reference frame: TEME

Reference center: EARTH

Epoch: July 6, 2025, 8:09 p.m. UTC

TLE line 0: 0 SL-8 R/B

TLE line 1: 1 14760U 84019B 25187.83971611 .00000186 00000-0 71453-4 0 9998

TLE line 2: 2 14760 74.0428 123.2620 0027882 337.9674 22.0278 14.37018926165854

Live tracking on map

Real-time ground track for satellite SL-8 R/B.

In-orbit conjunctions

A list of the most updated potential collisions computed for object SL-8 R/B.

Target Orbit TCA Probability of collision Miss distance Type
FENGYUN 1C DEB SSO 2025-06-14 19:43:34 0.0001811558 444.0 (m) DEBRIS
DMSP 5D-2 F13 DEB SSO 2025-03-01 19:14:24 0.0001280695 130.0 (m) DEBRIS
CZ-6A DEB LEO 2024-12-02 23:27:31 0.0001276998 612.0 (m) DEBRIS
FENGYUN 1C DEB SSO 2024-06-07 20:03:40 0.0001064695 322.0 (m) DEBRIS

Associated space launch

Military communications satellite

SL-8 R/B was lifted into orbit during the mission ‘Kosmos-3M | Strela-2M 34’, on board a Kosmos-3M space rocket.

The launch took place on Feb. 21, 1984, 3:36 p.m. from 132/1 (132L).

For more information about the launch, click the button.

Launch to space Kosmos-3M | Strela-2M 34
Kosmos-3M | Strela-2M 34

Agency: N/A

Status: Launch Successful

Launch date: Feb. 21, 1984, 3:36 p.m. UTC

Rocket: Kosmos-3M

Launch pad: 132/1 (132L)

Location: Plesetsk Cosmodrome, Russian Federation

...

Latest news about this satellite

There are no fresh news available about this satellite. Check back as we update our databases every day.


Newsletter sign-up

Weekly statistics, charts and insights to help you stay on top of the space industry.